Kendall, FL

3:56 AM EDT on August 24, 2017 (GMT -0400)
Kendall-Tamiami Executive

Weather History for KTMB - March, 2014

Change the Weather History Date:

Thursday, March 20, 2014

  Actual Average Record
Temperature  
Mean Temperature 75 °F -  
Max Temperature 88 °F 82 °F 88 °F (2003)
Min Temperature 63 °F 62 °F 50 °F (2005)
Cooling Degree Days 10    
Growing Degree Days 25 (Base 50)    
Moisture  
Dew Point 63 °F    
Average Humidity 72    
Maximum Humidity 93    
Minimum Humidity 30    
Precipitation  
Precipitation 0.00 in - - ()
Sea Level Pressure  
Sea Level Pressure 30.02 in    
Wind  
Wind Speed 4 mph (WNW)    
Max Wind Speed 13 mph    
Max Gust Speed -    
Visibility 10 miles    
Events      
Averages and records for this station are not official NWS values.
T = Trace of Precipitation, MM = Missing Value Source: NWS Daily Summary

Daily Weather History Graph

Daily Weather History Graph

Search for Another Location

Airport or City:

Trip Planner

Search our weather history database for the weather conditions in past years. The results will help you decide how hot, cold, wet, or windy it might be!

Date:

Astronomy

Mar. 20, 2014 Rise Set
Actual Time 7:25 AM EDT 7:32 PM EDT
Civil Twilight 7:02 AM EDT 7:55 PM EDT
Nautical Twilight 6:36 AM EDT 8:22 PM EDT
Astronomical Twilight 6:09 AM EDT 8:49 PM EDT
Moon 11:25 PM EDT (3/20) 9:53 AM EDT (3/20)
Length of Visible Light 12h 53m
Length of Day
12h 07m
Waning Gibbous, 84% of the Moon is Illuminated
Mar 20
Waning Gibbous
Mar 23
Last Quarter
Mar 30
New
Apr 7
First Quarter
Apr 15
Full

Hourly Weather History & Observations

Time (EDT) Temp. Heat Index Dew Point Humidity Pressure Visibility Wind Dir Wind Speed Gust Speed Precip Events Conditions
12:39 AM 72.0 °F - 66.0 °F 81% 30.05 in 10.0 mi Calm Calm - N/A   Mostly Cloudy
12:53 AM 71.1 °F - 66.0 °F 84% 30.05 in 10.0 mi Calm Calm - N/A   Partly Cloudy
1:53 AM 70.0 °F - 66.0 °F 87% 30.04 in 9.0 mi Calm Calm - N/A   Partly Cloudy
2:38 AM 69.1 °F - 66.0 °F 90% 30.03 in 7.0 mi West 4.6 mph - N/A   Overcast
2:53 AM 69.1 °F - 66.0 °F 90% 30.02 in 8.0 mi West 3.5 mph - N/A   Mostly Cloudy
3:00 AM 68.0 °F - 66.0 °F 93% 30.02 in 8.0 mi West 3.5 mph - N/A   Mostly Cloudy
3:53 AM 69.1 °F - 66.0 °F 90% 30.00 in 10.0 mi Calm Calm - N/A   Scattered Clouds
4:53 AM 69.1 °F - 64.0 °F 84% 29.99 in 10.0 mi Calm Calm - N/A   Clear
5:53 AM 69.1 °F - 64.0 °F 84% 29.99 in 10.0 mi Calm Calm - N/A   Mostly Cloudy
6:53 AM 66.9 °F - 64.0 °F 90% 30.02 in 9.0 mi West 4.6 mph - N/A   Mostly Cloudy
7:02 AM 66.9 °F - 64.0 °F 90% 30.02 in 8.0 mi WNW 3.5 mph - N/A   Overcast
7:53 AM 70.0 °F - 66.0 °F 87% 30.04 in 10.0 mi NW 4.6 mph - N/A   Overcast
8:12 AM 70.0 °F - 64.0 °F 81% 30.04 in 10.0 mi NW 4.6 mph - N/A   Mostly Cloudy
8:53 AM 73.0 °F - 64.9 °F 76% 30.04 in 10.0 mi WNW 4.6 mph - N/A   Partly Cloudy
9:53 AM 75.9 °F - 64.9 °F 69% 30.05 in 10.0 mi WNW 6.9 mph - N/A   Partly Cloudy
10:30 AM 77.0 °F - 64.9 °F 66% 30.05 in 10.0 mi NW 5.8 mph - N/A   Mostly Cloudy
10:49 AM 78.8 °F - 66.2 °F 65% 30.05 in 10.0 mi WNW 5.8 mph - N/A   Scattered Clouds
10:53 AM 79.0 °F - 66.0 °F 64% 30.05 in 10.0 mi NW 6.9 mph - N/A   Scattered Clouds
11:53 AM 81.0 °F 83.8 °F 68.0 °F 65% 30.06 in 10.0 mi NW 4.6 mph - N/A   Mostly Cloudy
12:53 PM 84.9 °F 87.6 °F 66.9 °F 55% 30.04 in 10.0 mi WNW 9.2 mph - N/A   Scattered Clouds
1:53 PM 84.9 °F 86.1 °F 64.0 °F 49% 30.01 in 10.0 mi WNW 10.4 mph - N/A   Mostly Cloudy
2:53 PM 86.0 °F 87.3 °F 64.0 °F 48% 29.99 in 10.0 mi WSW 6.9 mph - N/A   Scattered Clouds
3:53 PM 87.1 °F 87.8 °F 63.0 °F 44% 29.96 in 10.0 mi West 8.1 mph - N/A   Clear
4:53 PM 84.0 °F 87.0 °F 68.0 °F 58% 29.96 in 10.0 mi Variable 4.6 mph - N/A   Mostly Cloudy
5:53 PM 84.9 °F 85.9 °F 63.0 °F 48% 29.97 in 10.0 mi West 12.7 mph - N/A   Overcast
6:53 PM 81.0 °F - 46.9 °F 30% 29.98 in 10.0 mi West 12.7 mph - N/A   Mostly Cloudy
7:53 PM 75.0 °F - 48.0 °F 38% 29.98 in 10.0 mi WSW 8.1 mph - N/A   Clear
8:53 PM 71.1 °F - 57.9 °F 63% 30.00 in 10.0 mi WSW 9.2 mph - N/A   Clear
9:53 PM 66.0 °F - 60.1 °F 81% 30.01 in 10.0 mi West 4.6 mph - N/A   Clear
10:53 PM 63.0 °F - 59.0 °F 87% 30.04 in 10.0 mi WNW 5.8 mph - N/A   Unknown
11:53 PM 64.0 °F - 61.0 °F 90% 30.04 in 9.0 mi West 9.2 mph - N/A   Clear